Weather in Dzherokay

Russia / Republic of Adygea     44°59′12″N   40°18′58″E
temp.,
°C
wind,
m/s
gust,
m/s
humid.,
%
clouds,
%
prec.,
mm/h
press.,
hPa
HPBL,
m
22 january, fri
fri2200:00−3s238449 0.0 103123
03:00−3s238125 0.0 103125
06:00−3sse22780 0.0 103021
09:00−2se23770 0.0 103023
12:00+1ese22940 0.0 103089
15:00+2ese22870 0.0 102835
18:000ese23740 0.0 102822
21:00−1se23710 0.0 102821
23 january, sat
sat2300:00−1sse22700 0.0 102822
03:00−1sse22765 0.0 102722
06:00−1se237428 0.0 102722
09:000se127420 0.0 102722
12:00+3se11930 0.0 102530
15:00+4ese228311 0.0 102423
18:00+2ese237199 0.0 102422
21:00+1se236876 0.0 102422
24 january, sun
sun2400:00+1ese23680 0.0 102422
03:00+1se33700 0.0 102326
06:00+1ese346716 0.0 102138
09:00+2ese346756 0.0 102167
12:00+5e3673100 0.0 1020109
15:00+5e3474100 0.0 101870
18:00+3ese3471100 0.0 101930
21:00+3sse2268100 0.0 101922
25 january, mon
mon2500:00+2wsw1272100 0.0 101822
03:00+2sse1173100 0.0 101922
06:00+2ese2370100 0.0 101922
09:00+3ese2368100 0.0 101929
12:00+7ese246975 0.0 1018144
15:00+7e347167 0.0 101689
18:00+4e4570100 0.0 101655
21:00+4ese4470100 0.0 101657
26 january, tue
tue2600:00+4sw1277100 0.0 101622
03:00+4sse446593 0.0 101641
06:00+4se4460100 0.0 101645
09:00+5se4465100 0.0 101564
12:00+10se4665100 0.0 1014109
15:00+12ese2269100 0.0 101463
18:00+9w71865100 0.0 1016480
21:00+8wsw2582100 0.0 1017129